NOAA 16 DEB, 42367

Orbit data source: Space-Track

NOAA 16 DEB, 42367 is space debris in SSO originally from a launch on Thu, 21 Sep 2000 UTC launched from the Air Force Western Test Range (AFWTR). Debris objects in space refer to the collection of defunct objects orbiting the Earth. Examples of debris include non-operational satellites, rocket bodies, and fragments generated from explosions, collisions, or faulty payload assembly.

Loading next visibility...
Identifier
42367, 2000-055RK
Orbit
SSO
Country
Flag of USUS
Related business
Manufacturer
Unknown
Mission
Spacecraft
Bus & Motor
Unknown
Mass
Unknown
Launch date (UTC)
2000-09-21 (26 years ago)
Launch vehicle
Unknown
Launch site
Air Force Western Test Range (AFWTR)
Object type
Payload
Rocket body
Debris
Shape & HBR
Unknown shape, 0.1 m
Radar Cross Section
Medium (>0.1 m² and <1 m²)

Expand to show TLE details & history
Last TLE update: 23 hours ago

TLE from 23 hours ago
0 NOAA 16 DEB
1 42367U 00055RK  26171.31435397  .00013260  00000-0  31118-2 0  9992
2 42367  98.8898 299.6690 0016127  90.5513 269.7530 14.54520005527917
Epoch: 2026-06-20T07:32Z
TLE epoch observation values (Epoch: 2026-06-20T07:32:40.183Z)
Latitude
-0.00004°
Longitude
-82.02917°
Altitude
713.947 km
Speed
7.499 km/s
True Right ascension
19h 58m 40s
True Declination
0° 00' 00"
Sunlit
Object was in full shadow at epoch
Visualization orbit readout
Latitude
Unknown
Longitude
Unknown
Altitude
Unknown
Speed
Unknown
Apparent Right ascension
Unknown
Apparent Declination
Unknown
Sunlit
N/A
Visualization observer readout
Local Sidereal Time
17:38:54
Azimuth
Unknown
Elevation
Unknown
Doppler factor
Unknown
Orbital elements
Apogee altitude
719.473 km
Perigee altitude
696.617 km
Semi-major axis
7,086.182 km
Eccentricity
0.00161
Inclination
98.8898°
RAAN
299.669°
Arg. of periapsis
90.5513°
True anomaly
269.5682°
Mean anomaly
269.753°
Eccentric anomaly
269.6606°
Mean motion
3.63852 °/min
Orbital period
98.94 mins
BSTAR
0.0031118
Loading maneuver chart data...
Computing Atmospheric mass density...
Loading historical data...
Loading historical data...
Loading historical data...
Loading historical data...
Loading historical data...
Loading historical data...
Loading historical data...

Documentation

Showing up to 5 results
|